This is the latest recevied weather packets stored in our database for station/object SA6BET-2. If no packets are shown the sender has not sent any weather packets the latest 10 day(s).
| Time | Temp. | Humidity | Pressure | Rain* | Wind** | Luminosity | Snow |
|---|---|---|---|---|---|---|---|
| 1788009733 | 32.78° C | 100% | 1020.9 hPa | - | - | - | - |
| 1788008833 | 30.56° C | 100% | 1021.1 hPa | - | - | - | - |
| 1788007933 | 32.22° C | 100% | 1021.2 hPa | - | - | - | - |
| 1788007033 | 32.22° C | 100% | 1021.3 hPa | - | - | - | - |
| 1788006133 | 33.33° C | 96% | 1021.4 hPa | - | - | - | - |
| 1788005233 | 35° C | 83% | 1021.2 hPa | - | - | - | - |
| 1788004332 | 35.56° C | 75% | 1021.4 hPa | - | - | - | - |
| 1788003432 | 33.89° C | 68% | 1021.6 hPa | - | - | - | - |
| 1788002532 | 34.44° C | 60% | 1021.6 hPa | - | - | - | - |
| 1788001632 | 34.44° C | 58% | 1021.6 hPa | - | - | - | - |
| 1788000732 | 33.33° C | 59% | 1021.6 hPa | - | - | - | - |
| 1787999832 | 31.67° C | 58% | 1021.7 hPa | - | - | - | - |
| 1787998931 | 31.11° C | 61% | 1021.9 hPa | - | - | - | - |
| 1787998031 | 31.11° C | 62% | 1021.8 hPa | - | - | - | - |
| 1787997131 | 31.11° C | 63% | 1021.9 hPa | - | - | - | - |
| 1787996231 | 29.44° C | 71% | 1022 hPa | - | - | - | - |
| 1787995331 | 28.33° C | 78% | 1022 hPa | - | - | - | - |
| 1787994431 | 27.22° C | 97% | 1021.8 hPa | - | - | - | - |
| 1787993530 | 26.11° C | 100% | 1021.8 hPa | - | - | - | - |
| 1787992630 | 26.11° C | 100% | 1021.7 hPa | - | - | - | - |
| 1787991730 | 25° C | 93% | 1021.6 hPa | - | - | - | - |
| 1787990830 | 23.89° C | 88% | 1021.5 hPa | - | - | - | - |
| 1787989930 | 23.33° C | 92% | 1021.4 hPa | - | - | - | - |
| 1787989029 | 22.78° C | 100% | 1021.4 hPa | - | - | - | - |
| 1787988129 | 22.78° C | 100% | 1021.3 hPa | - | - | - | - |
* Rain since midnight (hover to see other rain measurements)
** Current wind speed in m/s (hover to see current wind gust speed)